Year,Month,Day,Hour,Minute,Value (Times are PST for temperature in C)
2017,05,28,00,00,15.70
2017,05,28,00,01,15.70
2017,05,28,00,02,15.70
2017,05,28,00,03,15.70
2017,05,28,00,04,15.70
2017,05,28,00,05,15.60
2017,05,28,00,06,15.60
2017,05,28,00,07,15.60
2017,05,28,00,08,15.60
2017,05,28,00,09,15.60
2017,05,28,00,10,15.50
2017,05,28,00,11,15.50
2017,05,28,00,12,15.50
2017,05,28,00,13,15.50
2017,05,28,00,14,15.40
2017,05,28,00,15,15.40
2017,05,28,00,16,15.40
2017,05,28,00,17,15.30
2017,05,28,00,18,15.30
2017,05,28,00,19,15.30
2017,05,28,00,20,15.30
2017,05,28,00,21,15.30
2017,05,28,00,22,15.30
2017,05,28,00,23,15.20
2017,05,28,00,24,15.20
2017,05,28,00,25,15.20
2017,05,28,00,26,15.20
2017,05,28,00,27,15.10
2017,05,28,00,28,15.00
2017,05,28,00,29,15.00
2017,05,28,00,30,15.00
2017,05,28,00,31,15.00
2017,05,28,00,32,15.00
2017,05,28,00,33,15.00
2017,05,28,00,34,15.00
2017,05,28,00,35,15.00
2017,05,28,00,36,15.00
2017,05,28,00,37,15.00
2017,05,28,00,38,15.00
2017,05,28,00,39,15.00
2017,05,28,00,40,15.00
2017,05,28,00,41,15.00
2017,05,28,00,42,15.00
2017,05,28,00,43,15.00
2017,05,28,00,44,15.00
2017,05,28,00,45,15.00
2017,05,28,00,46,15.00
2017,05,28,00,47,15.00
2017,05,28,00,48,15.00
2017,05,28,00,49,15.00
2017,05,28,00,50,15.00
2017,05,28,00,51,15.00
2017,05,28,00,52,15.00
2017,05,28,00,53,15.00
2017,05,28,00,54,15.00
2017,05,28,00,55,15.00
2017,05,28,00,56,15.00
2017,05,28,00,57,15.00
2017,05,28,00,58,15.00
2017,05,28,00,59,15.00
2017,05,28,01,00,15.00
2017,05,28,01,01,14.90
2017,05,28,01,02,14.80
2017,05,28,01,03,14.80
2017,05,28,01,04,14.80
2017,05,28,01,05,14.70
2017,05,28,01,06,14.70
2017,05,28,01,07,14.70
2017,05,28,01,08,14.70
2017,05,28,01,09,14.60
2017,05,28,01,10,14.60
2017,05,28,01,11,14.60
2017,05,28,01,12,14.60
2017,05,28,01,13,14.60
2017,05,28,01,14,14.50
2017,05,28,01,15,14.50
2017,05,28,01,16,14.50
2017,05,28,01,17,14.50
2017,05,28,01,18,14.40
2017,05,28,01,19,14.40
2017,05,28,01,20,14.40
2017,05,28,01,21,14.40
2017,05,28,01,22,14.40
2017,05,28,01,23,14.40
2017,05,28,01,24,14.30
2017,05,28,01,25,14.30
2017,05,28,01,26,14.30
2017,05,28,01,27,14.30
2017,05,28,01,28,14.30
2017,05,28,01,29,14.30
2017,05,28,01,30,14.20
2017,05,28,01,31,14.20
2017,05,28,01,32,14.20
2017,05,28,01,33,14.20
2017,05,28,01,34,14.20
2017,05,28,01,35,14.20
2017,05,28,01,36,14.20
2017,05,28,01,37,14.20
2017,05,28,01,38,14.20
2017,05,28,01,39,14.20
2017,05,28,01,40,14.20
2017,05,28,01,41,14.20
2017,05,28,01,42,14.20
2017,05,28,01,43,14.20
2017,05,28,01,44,14.20
2017,05,28,01,45,14.20
2017,05,28,01,46,14.20
2017,05,28,01,47,14.20
2017,05,28,01,48,14.20
2017,05,28,01,49,14.20
2017,05,28,01,50,14.20
2017,05,28,01,51,14.20
2017,05,28,01,52,14.20
2017,05,28,01,53,14.20
2017,05,28,01,54,14.20
2017,05,28,01,55,14.20
2017,05,28,01,56,14.20
2017,05,28,01,57,14.20
2017,05,28,01,58,14.20
2017,05,28,01,59,14.10
2017,05,28,02,00,14.10
2017,05,28,02,01,14.10
2017,05,28,02,02,14.10
2017,05,28,02,03,14.10
2017,05,28,02,04,14.10
2017,05,28,02,05,14.10
2017,05,28,02,06,14.10
2017,05,28,02,07,14.10
2017,05,28,02,08,14.10
2017,05,28,02,09,14.10
2017,05,28,02,10,14.10
2017,05,28,02,11,14.10
2017,05,28,02,12,14.10
2017,05,28,02,13,14.10
2017,05,28,02,14,14.10
2017,05,28,02,15,14.10
2017,05,28,02,16,14.10
2017,05,28,02,17,14.10
2017,05,28,02,18,14.10
2017,05,28,02,19,14.10
2017,05,28,02,20,14.10
2017,05,28,02,21,14.10
2017,05,28,02,22,14.10
2017,05,28,02,23,14.10
2017,05,28,02,24,14.10
2017,05,28,02,25,14.00
2017,05,28,02,26,14.00
2017,05,28,02,27,14.00
2017,05,28,02,28,14.00
2017,05,28,02,29,13.90
2017,05,28,02,30,13.90
2017,05,28,02,31,13.90
2017,05,28,02,32,13.90
2017,05,28,02,33,13.90
2017,05,28,02,34,13.80
2017,05,28,02,35,13.80
2017,05,28,02,36,13.80
2017,05,28,02,37,13.80
2017,05,28,02,38,13.70
2017,05,28,02,39,13.70
2017,05,28,02,40,13.70
2017,05,28,02,41,13.70
2017,05,28,02,42,13.60
2017,05,28,02,43,13.60
2017,05,28,02,44,13.60
2017,05,28,02,45,13.60
2017,05,28,02,46,13.50
2017,05,28,02,47,13.50
2017,05,28,02,48,13.40
2017,05,28,02,49,13.40
2017,05,28,02,50,13.40
2017,05,28,02,51,13.40
2017,05,28,02,52,13.30
2017,05,28,02,53,13.30
2017,05,28,02,54,13.30
2017,05,28,02,55,13.30
2017,05,28,02,56,13.30
2017,05,28,02,57,13.20
2017,05,28,02,58,13.20
2017,05,28,02,59,13.20
2017,05,28,03,00,13.20
2017,05,28,03,01,13.20
2017,05,28,03,02,13.20
2017,05,28,03,03,13.20
2017,05,28,03,04,13.10
2017,05,28,03,05,13.10
2017,05,28,03,06,13.10
2017,05,28,03,07,13.10
2017,05,28,03,08,13.10
2017,05,28,03,09,13.10
2017,05,28,03,10,13.10
2017,05,28,03,11,13.10
2017,05,28,03,12,13.00
2017,05,28,03,13,13.00
2017,05,28,03,14,13.00
2017,05,28,03,15,13.00
2017,05,28,03,16,13.00
2017,05,28,03,17,13.00
2017,05,28,03,18,12.90
2017,05,28,03,19,12.90
2017,05,28,03,20,12.90
2017,05,28,03,21,12.90
2017,05,28,03,22,12.80
2017,05,28,03,23,12.80
2017,05,28,03,24,12.80
2017,05,28,03,25,12.80
2017,05,28,03,26,12.80
2017,05,28,03,27,12.80
2017,05,28,03,28,12.70
2017,05,28,03,29,12.70
2017,05,28,03,30,12.70
2017,05,28,03,31,12.70
2017,05,28,03,32,12.70
2017,05,28,03,33,12.70
2017,05,28,03,34,12.70
2017,05,28,03,35,12.70
2017,05,28,03,36,12.70
2017,05,28,03,37,12.70
2017,05,28,03,38,12.70
2017,05,28,03,39,12.70
2017,05,28,03,40,12.70
2017,05,28,03,41,12.70
2017,05,28,03,42,12.70
2017,05,28,03,43,12.70
2017,05,28,03,44,12.70
2017,05,28,03,45,12.70
2017,05,28,03,46,12.70
2017,05,28,03,47,12.70
2017,05,28,03,48,12.70
2017,05,28,03,49,12.70
2017,05,28,03,50,12.70
2017,05,28,03,51,12.70
2017,05,28,03,52,12.70
2017,05,28,03,53,12.70
2017,05,28,03,54,12.70
2017,05,28,03,55,12.70
2017,05,28,03,56,12.70
2017,05,28,03,57,12.70
2017,05,28,03,58,12.70
2017,05,28,03,59,12.70
2017,05,28,04,00,12.70
2017,05,28,04,01,12.70
2017,05,28,04,02,12.70
2017,05,28,04,03,12.70
2017,05,28,04,04,12.70
2017,05,28,04,05,12.70
2017,05,28,04,06,12.70
2017,05,28,04,07,12.70
2017,05,28,04,08,12.70
2017,05,28,04,09,12.70
2017,05,28,04,10,12.70
2017,05,28,04,11,12.70
2017,05,28,04,12,12.70
2017,05,28,04,13,12.70
2017,05,28,04,14,12.60
2017,05,28,04,15,12.60
2017,05,28,04,16,12.60
2017,05,28,04,17,12.60
2017,05,28,04,18,12.60
2017,05,28,04,19,12.60
2017,05,28,04,20,12.60
2017,05,28,04,21,12.60
2017,05,28,04,22,12.50
2017,05,28,04,23,12.50
2017,05,28,04,24,12.50
2017,05,28,04,25,12.50
2017,05,28,04,26,12.50
2017,05,28,04,27,12.50
2017,05,28,04,28,12.40
2017,05,28,04,29,12.40
2017,05,28,04,30,12.40
2017,05,28,04,31,12.40
2017,05,28,04,32,12.40
2017,05,28,04,33,12.30
2017,05,28,04,34,12.30
2017,05,28,04,35,12.30
2017,05,28,04,36,12.30
2017,05,28,04,37,12.30
2017,05,28,04,38,12.30
2017,05,28,04,39,12.30
2017,05,28,04,40,12.30
2017,05,28,04,41,12.20
2017,05,28,04,42,12.20
2017,05,28,04,43,12.20
2017,05,28,04,44,12.20
2017,05,28,04,45,12.20
2017,05,28,04,46,12.20
2017,05,28,04,47,12.20
2017,05,28,04,48,12.20
2017,05,28,04,49,12.20
2017,05,28,04,50,12.10
2017,05,28,04,51,12.10
2017,05,28,04,52,12.10
2017,05,28,04,53,12.10
2017,05,28,04,54,12.10
2017,05,28,04,55,12.10
2017,05,28,04,56,12.00
2017,05,28,04,57,12.00
2017,05,28,04,58,12.00
2017,05,28,04,59,12.00
2017,05,28,05,00,12.00
2017,05,28,05,01,11.90
2017,05,28,05,02,11.90
2017,05,28,05,03,11.90
2017,05,28,05,04,11.90
2017,05,28,05,05,11.90
2017,05,28,05,06,11.80
2017,05,28,05,07,11.80
2017,05,28,05,08,11.80
2017,05,28,05,09,11.80
2017,05,28,05,10,11.80
2017,05,28,05,11,11.80
2017,05,28,05,12,11.80
2017,05,28,05,13,11.80
2017,05,28,05,14,11.70
2017,05,28,05,15,11.70
2017,05,28,05,16,11.70
2017,05,28,05,17,11.70
2017,05,28,05,18,11.70
2017,05,28,05,19,11.70
2017,05,28,05,20,11.70
2017,05,28,05,21,11.70
2017,05,28,05,22,11.70
2017,05,28,05,23,11.60
2017,05,28,05,24,11.60
2017,05,28,05,25,11.60
2017,05,28,05,26,11.60
2017,05,28,05,27,11.60
2017,05,28,05,28,11.60
2017,05,28,05,29,11.60
2017,05,28,05,30,11.60
2017,05,28,05,31,11.60
2017,05,28,05,32,11.60
2017,05,28,05,33,11.50
2017,05,28,05,34,11.50
2017,05,28,05,35,11.50
2017,05,28,05,36,11.50
2017,05,28,05,37,11.40
2017,05,28,05,38,11.40
2017,05,28,05,39,11.40
2017,05,28,05,40,11.40
2017,05,28,05,41,11.40
2017,05,28,05,42,11.30
2017,05,28,05,43,11.30
2017,05,28,05,44,11.30
2017,05,28,05,45,11.30
2017,05,28,05,46,11.30
2017,05,28,05,47,11.30
2017,05,28,05,48,11.30
2017,05,28,05,49,11.30
2017,05,28,05,50,11.30
2017,05,28,05,51,11.30
2017,05,28,05,52,11.30
2017,05,28,05,53,11.30
2017,05,28,05,54,11.40
2017,05,28,05,55,11.40
2017,05,28,05,56,11.40
2017,05,28,05,57,11.40
2017,05,28,05,58,11.40
2017,05,28,05,59,11.40
2017,05,28,06,00,11.40
2017,05,28,06,01,11.50
2017,05,28,06,02,11.50
2017,05,28,06,03,11.50
2017,05,28,06,04,11.60
2017,05,28,06,05,11.60
2017,05,28,06,06,11.60
2017,05,28,06,07,11.60
2017,05,28,06,08,11.60
2017,05,28,06,09,11.60
2017,05,28,06,10,11.60
2017,05,28,06,11,11.60
2017,05,28,06,12,11.60
2017,05,28,06,13,11.60
2017,05,28,06,14,11.60
2017,05,28,06,15,11.60
2017,05,28,06,16,11.60
2017,05,28,06,17,11.60
2017,05,28,06,18,11.60
2017,05,28,06,19,11.60
2017,05,28,06,20,11.60
2017,05,28,06,21,11.70
2017,05,28,06,22,11.70
2017,05,28,06,23,11.70
2017,05,28,06,24,11.70
2017,05,28,06,25,11.70
2017,05,28,06,26,11.70
2017,05,28,06,27,11.80
2017,05,28,06,28,11.80
2017,05,28,06,29,11.80
2017,05,28,06,30,11.80
2017,05,28,06,31,11.80
2017,05,28,06,32,11.80
2017,05,28,06,33,11.80
2017,05,28,06,34,11.80
2017,05,28,06,35,11.80
2017,05,28,06,36,11.80
2017,05,28,06,37,11.80
2017,05,28,06,38,11.80
2017,05,28,06,39,11.80
2017,05,28,06,40,11.80
2017,05,28,06,41,11.80
2017,05,28,06,42,11.80
2017,05,28,06,43,11.80
2017,05,28,06,44,11.80
2017,05,28,06,45,11.80
2017,05,28,06,46,11.80
2017,05,28,06,47,11.90
2017,05,28,06,48,11.90
2017,05,28,06,49,11.90
2017,05,28,06,50,11.90
2017,05,28,06,51,12.00
2017,05,28,06,52,12.00
2017,05,28,06,53,12.00
2017,05,28,06,54,12.10
2017,05,28,06,55,12.10
2017,05,28,06,56,12.10
2017,05,28,06,57,12.20
2017,05,28,06,58,12.20
2017,05,28,06,59,12.20
2017,05,28,07,00,12.30
2017,05,28,07,01,12.30
2017,05,28,07,02,12.40
2017,05,28,07,03,12.40
2017,05,28,07,04,12.50
2017,05,28,07,05,12.50
2017,05,28,07,06,12.60
2017,05,28,07,07,12.60
2017,05,28,07,08,12.70
2017,05,28,07,09,12.80
2017,05,28,07,10,12.80
2017,05,28,07,11,12.90
2017,05,28,07,12,12.90
2017,05,28,07,13,13.00
2017,05,28,07,14,13.10
2017,05,28,07,15,13.10
2017,05,28,07,16,13.20
2017,05,28,07,17,13.20
2017,05,28,07,18,13.30
2017,05,28,07,19,13.30
2017,05,28,07,20,13.40
2017,05,28,07,21,13.50
2017,05,28,07,22,13.50
2017,05,28,07,23,13.60
2017,05,28,07,24,13.70
2017,05,28,07,25,13.70
2017,05,28,07,26,13.80
2017,05,28,07,27,13.90
2017,05,28,07,28,13.90
2017,05,28,07,29,14.00
2017,05,28,07,30,14.00
2017,05,28,07,31,14.10
2017,05,28,07,32,14.10
2017,05,28,07,33,14.20
2017,05,28,07,34,14.20
2017,05,28,07,35,14.30
2017,05,28,07,36,14.30
2017,05,28,07,37,14.40
2017,05,28,07,38,14.40
2017,05,28,07,39,14.50
2017,05,28,07,40,14.50
2017,05,28,07,41,14.60
2017,05,28,07,42,14.60
2017,05,28,07,43,14.70
2017,05,28,07,44,14.70
2017,05,28,07,45,14.80
2017,05,28,07,46,14.90
2017,05,28,07,47,15.00
2017,05,28,07,48,15.00
2017,05,28,07,49,15.00
2017,05,28,07,50,15.00
2017,05,28,07,51,15.00
2017,05,28,07,52,15.00
2017,05,28,07,53,15.00
2017,05,28,07,54,15.00
2017,05,28,07,55,15.00
2017,05,28,07,56,15.00
2017,05,28,07,57,15.00
2017,05,28,07,58,15.00
2017,05,28,07,59,15.00
2017,05,28,08,00,15.00
2017,05,28,08,01,15.00
2017,05,28,08,02,15.00
2017,05,28,08,03,15.00
2017,05,28,08,04,15.00
2017,05,28,08,05,15.00
2017,05,28,08,06,15.20
2017,05,28,08,07,15.40
2017,05,28,08,08,15.50
2017,05,28,08,09,15.70
2017,05,28,08,10,15.80
2017,05,28,08,11,15.90
2017,05,28,08,12,16.00
2017,05,28,08,13,16.10
2017,05,28,08,14,16.20
2017,05,28,08,15,16.40
2017,05,28,08,16,16.50
2017,05,28,08,17,16.60
2017,05,28,08,18,16.70
2017,05,28,08,19,16.80
2017,05,28,08,20,16.90
2017,05,28,08,21,17.00
2017,05,28,08,22,17.20
2017,05,28,08,23,17.30
2017,05,28,08,24,17.50
2017,05,28,08,25,17.60
2017,05,28,08,26,17.80
2017,05,28,08,27,17.90
2017,05,28,08,28,18.00
2017,05,28,08,29,18.20
2017,05,28,08,30,18.20
2017,05,28,08,31,18.40
2017,05,28,08,32,18.50
2017,05,28,08,33,18.70
2017,05,28,08,34,18.80
2017,05,28,08,35,18.90
2017,05,28,08,36,18.90
2017,05,28,08,37,19.10
2017,05,28,08,38,19.20
2017,05,28,08,39,19.30
2017,05,28,08,40,19.40
2017,05,28,08,41,19.50
2017,05,28,08,42,19.60
2017,05,28,08,43,19.70
2017,05,28,08,44,19.80
2017,05,28,08,45,19.90
2017,05,28,08,46,20.00
2017,05,28,08,47,20.00
2017,05,28,08,48,20.10
2017,05,28,08,49,20.20
2017,05,28,08,50,20.30
2017,05,28,08,51,20.40
2017,05,28,08,52,20.50
2017,05,28,08,53,20.60
2017,05,28,08,54,20.60
2017,05,28,08,55,20.70
2017,05,28,08,56,20.70
2017,05,28,08,57,20.70
2017,05,28,08,58,20.70
2017,05,28,08,59,20.80
2017,05,28,09,00,20.80
2017,05,28,09,01,20.90
2017,05,28,09,02,21.00
2017,05,28,09,03,21.10
2017,05,28,09,04,21.20
2017,05,28,09,05,21.20
2017,05,28,09,06,21.20
2017,05,28,09,07,21.30
2017,05,28,09,08,21.30
2017,05,28,09,09,21.40
2017,05,28,09,10,21.50
2017,05,28,09,11,21.60
2017,05,28,09,12,21.60
2017,05,28,09,13,21.70
2017,05,28,09,14,21.70
2017,05,28,09,15,21.70
2017,05,28,09,16,21.70
2017,05,28,09,17,21.80
2017,05,28,09,18,21.80
2017,05,28,09,19,21.80
2017,05,28,09,20,21.80
2017,05,28,09,21,21.80
2017,05,28,09,22,21.80
2017,05,28,09,23,21.90
2017,05,28,09,24,22.00
2017,05,28,09,25,22.00
2017,05,28,09,26,22.10
2017,05,28,09,27,22.10
2017,05,28,09,28,22.10
2017,05,28,09,29,22.10
2017,05,28,09,30,22.20
2017,05,28,09,31,22.20
2017,05,28,09,32,22.20
2017,05,28,09,33,22.20
2017,05,28,09,34,22.20
2017,05,28,09,35,22.10
2017,05,28,09,36,22.10
2017,05,28,09,37,22.10
2017,05,28,09,38,22.00
2017,05,28,09,39,22.00
2017,05,28,09,40,22.10
2017,05,28,09,41,22.10
2017,05,28,09,42,22.20
2017,05,28,09,43,22.30
2017,05,28,09,44,22.30
2017,05,28,09,45,22.40
2017,05,28,09,46,22.50
2017,05,28,09,47,22.50
2017,05,28,09,48,22.50
2017,05,28,09,49,22.60
2017,05,28,09,50,22.60
2017,05,28,09,51,22.60
2017,05,28,09,52,22.70
2017,05,28,09,53,22.70
2017,05,28,09,54,22.80
2017,05,28,09,55,22.80
2017,05,28,09,56,22.90
2017,05,28,09,57,22.90
2017,05,28,09,58,23.00
2017,05,28,09,59,23.00
2017,05,28,10,00,23.10
2017,05,28,10,01,23.20
2017,05,28,10,02,23.20
2017,05,28,10,03,23.10
2017,05,28,10,04,23.00
2017,05,28,10,05,23.00
2017,05,28,10,06,23.10
2017,05,28,10,07,23.10
2017,05,28,10,08,23.20
2017,05,28,10,09,23.30
2017,05,28,10,10,23.30
2017,05,28,10,11,23.20
2017,05,28,10,12,23.30
2017,05,28,10,13,23.30
2017,05,28,10,14,23.30
2017,05,28,10,15,23.40
2017,05,28,10,16,23.40
2017,05,28,10,17,23.50
2017,05,28,10,18,23.70
2017,05,28,10,19,23.70
2017,05,28,10,20,23.80
2017,05,28,10,21,23.80
2017,05,28,10,22,23.90
2017,05,28,10,23,23.90
2017,05,28,10,24,23.90
2017,05,28,10,25,24.00
2017,05,28,10,26,24.00
2017,05,28,10,27,24.00
2017,05,28,10,28,24.00
2017,05,28,10,29,24.00
2017,05,28,10,30,24.00
2017,05,28,10,31,23.90
2017,05,28,10,32,23.90
2017,05,28,10,33,23.80
2017,05,28,10,34,23.80
2017,05,28,10,35,23.80
2017,05,28,10,36,23.80
2017,05,28,10,37,23.80
2017,05,28,10,38,23.90
2017,05,28,10,39,23.90
2017,05,28,10,40,23.80
2017,05,28,10,41,23.80
2017,05,28,10,42,23.80
2017,05,28,10,43,23.90
2017,05,28,10,44,23.90
2017,05,28,10,45,23.90
2017,05,28,10,46,24.00
2017,05,28,10,47,24.10
2017,05,28,10,48,24.20
2017,05,28,10,49,24.30
2017,05,28,10,50,24.40
2017,05,28,10,51,24.40
2017,05,28,10,52,24.50
2017,05,28,10,53,24.60
2017,05,28,10,54,24.70
2017,05,28,10,55,24.70
2017,05,28,10,56,24.70
2017,05,28,10,57,24.70
2017,05,28,10,58,24.70
2017,05,28,10,59,24.80
2017,05,28,11,00,24.80
2017,05,28,11,01,24.80
2017,05,28,11,02,24.80
2017,05,28,11,03,24.80
2017,05,28,11,04,24.80
2017,05,28,11,05,24.80
2017,05,28,11,06,24.80
2017,05,28,11,07,24.80
2017,05,28,11,08,24.70
2017,05,28,11,09,24.60
2017,05,28,11,10,24.60
2017,05,28,11,11,24.60
2017,05,28,11,12,24.60
2017,05,28,11,13,24.60
2017,05,28,11,14,24.60
2017,05,28,11,15,24.60
2017,05,28,11,16,24.60
2017,05,28,11,17,24.50
2017,05,28,11,18,24.50
2017,05,28,11,19,24.50
2017,05,28,11,20,24.60
2017,05,28,11,21,24.60
2017,05,28,11,22,24.60
2017,05,28,11,23,24.70
2017,05,28,11,24,24.70
2017,05,28,11,25,24.80
2017,05,28,11,26,24.80
2017,05,28,11,27,24.80
2017,05,28,11,28,24.80
2017,05,28,11,29,24.80
2017,05,28,11,30,24.90
2017,05,28,11,31,24.80
2017,05,28,11,32,24.80
2017,05,28,11,33,24.80
2017,05,28,11,34,24.80
2017,05,28,11,35,24.80
2017,05,28,11,36,24.80
2017,05,28,11,37,24.70
2017,05,28,11,38,24.70
2017,05,28,11,39,24.80
2017,05,28,11,40,24.80
2017,05,28,11,41,24.90
2017,05,28,11,42,25.00
2017,05,28,11,43,25.10
2017,05,28,11,44,25.10
2017,05,28,11,45,25.20
2017,05,28,11,46,25.20
2017,05,28,11,47,25.20
2017,05,28,11,48,25.10
2017,05,28,11,49,25.10
2017,05,28,11,50,25.00
2017,05,28,11,51,24.90
2017,05,28,11,52,24.90
2017,05,28,11,53,24.90
2017,05,28,11,54,24.80
2017,05,28,11,55,24.80
2017,05,28,11,56,24.80
2017,05,28,11,57,24.90
2017,05,28,11,58,24.90
2017,05,28,11,59,24.90
2017,05,28,12,00,25.00
2017,05,28,12,01,25.00
2017,05,28,12,02,25.20
2017,05,28,12,03,25.30
2017,05,28,12,04,25.40
2017,05,28,12,05,25.40
2017,05,28,12,06,25.40
2017,05,28,12,07,25.40
2017,05,28,12,08,25.40
2017,05,28,12,09,25.30
2017,05,28,12,10,25.30
2017,05,28,12,11,25.30
2017,05,28,12,12,25.20
2017,05,28,12,13,25.10
2017,05,28,12,14,25.00
2017,05,28,12,15,25.00
2017,05,28,12,16,25.10
2017,05,28,12,17,25.10
2017,05,28,12,18,25.20
2017,05,28,12,19,25.20
2017,05,28,12,20,25.30
2017,05,28,12,21,25.40
2017,05,28,12,22,25.50
2017,05,28,12,23,25.50
2017,05,28,12,24,25.60
2017,05,28,12,25,25.70
2017,05,28,12,26,25.80
2017,05,28,12,27,25.90
2017,05,28,12,28,25.90
2017,05,28,12,29,25.90
2017,05,28,12,30,25.90
2017,05,28,12,31,25.80
2017,05,28,12,32,25.80
2017,05,28,12,33,25.80
2017,05,28,12,34,25.80
2017,05,28,12,35,25.80
2017,05,28,12,36,25.80
2017,05,28,12,37,25.80
2017,05,28,12,38,25.80
2017,05,28,12,39,25.80
2017,05,28,12,40,25.70
2017,05,28,12,41,25.60
2017,05,28,12,42,25.60
2017,05,28,12,43,25.60
2017,05,28,12,44,25.60
2017,05,28,12,45,25.70
2017,05,28,12,46,25.70
2017,05,28,12,47,25.70
2017,05,28,12,48,25.70
2017,05,28,12,49,25.60
2017,05,28,12,50,25.60
2017,05,28,12,51,25.60
2017,05,28,12,52,25.60
2017,05,28,12,53,25.60
2017,05,28,12,54,25.60
2017,05,28,12,55,25.60
2017,05,28,12,56,25.60
2017,05,28,12,57,25.60
2017,05,28,12,58,25.60
2017,05,28,12,59,25.60
2017,05,28,13,00,25.60
2017,05,28,13,01,25.60
2017,05,28,13,02,25.70
2017,05,28,13,03,25.70
2017,05,28,13,04,25.70
2017,05,28,13,05,25.80
2017,05,28,13,06,25.80
2017,05,28,13,07,25.90
2017,05,28,13,08,25.90
2017,05,28,13,09,25.90
2017,05,28,13,10,25.90
2017,05,28,13,11,25.90
2017,05,28,13,12,25.90
2017,05,28,13,13,25.90
2017,05,28,13,14,25.90
2017,05,28,13,15,25.90
2017,05,28,13,16,26.00
2017,05,28,13,17,26.00
2017,05,28,13,18,26.10
2017,05,28,13,19,26.10
2017,05,28,13,20,26.20
2017,05,28,13,21,26.20
2017,05,28,13,22,26.30
2017,05,28,13,23,26.40
2017,05,28,13,24,26.40
2017,05,28,13,25,26.50
2017,05,28,13,26,26.60
2017,05,28,13,27,26.60
2017,05,28,13,28,26.50
2017,05,28,13,29,26.40
2017,05,28,13,30,26.50
2017,05,28,13,31,26.50
2017,05,28,13,32,26.40
2017,05,28,13,33,26.40
2017,05,28,13,34,26.40
2017,05,28,13,35,26.40
2017,05,28,13,36,26.30
2017,05,28,13,37,26.30
2017,05,28,13,38,26.30
2017,05,28,13,39,26.40
2017,05,28,13,40,26.40
2017,05,28,13,41,26.40
2017,05,28,13,42,26.40
2017,05,28,13,43,26.50
2017,05,28,13,44,26.50
2017,05,28,13,45,26.60
2017,05,28,13,46,26.60
2017,05,28,13,47,26.70
2017,05,28,13,48,26.70
2017,05,28,13,49,26.80
2017,05,28,13,50,26.70
2017,05,28,13,51,26.70
2017,05,28,13,52,26.60
2017,05,28,13,53,26.60
2017,05,28,13,54,26.50
2017,05,28,13,55,26.40
2017,05,28,13,56,26.30
2017,05,28,13,57,26.30
2017,05,28,13,58,26.30
2017,05,28,13,59,26.30
2017,05,28,14,00,26.30
2017,05,28,14,01,26.30
2017,05,28,14,02,26.20
2017,05,28,14,03,26.30
2017,05,28,14,04,26.30
2017,05,28,14,05,26.30
2017,05,28,14,06,26.30
2017,05,28,14,07,26.30
2017,05,28,14,08,26.40
2017,05,28,14,09,26.40
2017,05,28,14,10,26.40
2017,05,28,14,11,26.50
2017,05,28,14,12,26.60
2017,05,28,14,13,26.60
2017,05,28,14,14,26.60
2017,05,28,14,15,26.60
2017,05,28,14,16,26.60
2017,05,28,14,17,26.60
2017,05,28,14,18,26.60
2017,05,28,14,19,26.50
2017,05,28,14,20,26.50
2017,05,28,14,21,26.40
2017,05,28,14,22,26.40
2017,05,28,14,23,26.40
2017,05,28,14,24,26.50
2017,05,28,14,25,26.50
2017,05,28,14,26,26.60
2017,05,28,14,27,26.60
2017,05,28,14,28,26.70
2017,05,28,14,29,26.70
2017,05,28,14,30,26.80
2017,05,28,14,31,26.80
2017,05,28,14,32,26.80
2017,05,28,14,33,26.80
2017,05,28,14,34,26.80
2017,05,28,14,35,26.80
2017,05,28,14,36,26.80
2017,05,28,14,37,26.80
2017,05,28,14,38,26.80
2017,05,28,14,39,26.80
2017,05,28,14,40,26.80
2017,05,28,14,41,26.80
2017,05,28,14,42,26.80
2017,05,28,14,43,26.70
2017,05,28,14,44,26.70
2017,05,28,14,45,26.60
2017,05,28,14,46,26.60
2017,05,28,14,47,26.50
2017,05,28,14,48,26.50
2017,05,28,14,49,26.60
2017,05,28,14,50,26.60
2017,05,28,14,51,26.60
2017,05,28,14,52,26.60
2017,05,28,14,53,26.70
2017,05,28,14,54,26.70
2017,05,28,14,55,26.80
2017,05,28,14,56,26.80
2017,05,28,14,57,26.80
2017,05,28,14,58,26.80
2017,05,28,14,59,26.80
2017,05,28,15,00,26.80
2017,05,28,15,01,26.80
2017,05,28,15,02,26.80
2017,05,28,15,03,26.80
2017,05,28,15,04,26.80
2017,05,28,15,05,26.80
2017,05,28,15,06,26.80
2017,05,28,15,07,26.80
2017,05,28,15,08,26.80
2017,05,28,15,09,26.80
2017,05,28,15,10,26.80
2017,05,28,15,11,26.80
2017,05,28,15,12,26.80
2017,05,28,15,13,26.80
2017,05,28,15,14,26.80
2017,05,28,15,15,26.80
2017,05,28,15,16,26.80
2017,05,28,15,17,26.80
2017,05,28,15,18,26.80
2017,05,28,15,19,26.80
2017,05,28,15,20,26.80
2017,05,28,15,21,26.90
2017,05,28,15,22,26.90
2017,05,28,15,23,26.90
2017,05,28,15,24,26.80
2017,05,28,15,25,26.80
2017,05,28,15,26,26.80
2017,05,28,15,27,26.90
2017,05,28,15,28,26.90
2017,05,28,15,29,27.00
2017,05,28,15,30,27.00
2017,05,28,15,31,27.10
2017,05,28,15,32,27.10
2017,05,28,15,33,27.10
2017,05,28,15,34,27.10
2017,05,28,15,35,27.10
2017,05,28,15,36,27.10
2017,05,28,15,37,27.00
2017,05,28,15,38,26.90
2017,05,28,15,39,26.90
2017,05,28,15,40,26.90
2017,05,28,15,41,27.00
2017,05,28,15,42,27.00
2017,05,28,15,43,27.00
2017,05,28,15,44,27.00
2017,05,28,15,45,27.00
2017,05,28,15,46,27.10
2017,05,28,15,47,27.10
2017,05,28,15,48,27.20
2017,05,28,15,49,27.20
2017,05,28,15,50,27.20
2017,05,28,15,51,27.20
2017,05,28,15,52,27.20
2017,05,28,15,53,27.20
2017,05,28,15,54,27.20
2017,05,28,15,55,27.20
2017,05,28,15,56,27.20
2017,05,28,15,57,27.10
2017,05,28,15,58,27.10
2017,05,28,15,59,27.10
2017,05,28,16,00,27.10
2017,05,28,16,01,27.10
2017,05,28,16,02,27.20
2017,05,28,16,03,27.20
2017,05,28,16,04,27.20
2017,05,28,16,05,27.20
2017,05,28,16,06,27.10
2017,05,28,16,07,27.10
2017,05,28,16,08,27.20
2017,05,28,16,09,27.20
2017,05,28,16,10,27.20
2017,05,28,16,11,27.20
2017,05,28,16,12,27.20
2017,05,28,16,13,27.30
2017,05,28,16,14,27.20
2017,05,28,16,15,27.20
2017,05,28,16,16,27.20
2017,05,28,16,17,27.30
2017,05,28,16,18,27.30
2017,05,28,16,19,27.40
2017,05,28,16,20,27.40
2017,05,28,16,21,27.50
2017,05,28,16,22,27.50
2017,05,28,16,23,27.40
2017,05,28,16,24,27.40
2017,05,28,16,25,27.40
2017,05,28,16,26,27.40
2017,05,28,16,27,27.40
2017,05,28,16,28,27.40
2017,05,28,16,29,27.30
2017,05,28,16,30,27.30
2017,05,28,16,31,27.30
2017,05,28,16,32,27.30
2017,05,28,16,33,27.40
2017,05,28,16,34,27.40
2017,05,28,16,35,27.40
2017,05,28,16,36,27.40
2017,05,28,16,37,27.50
2017,05,28,16,38,27.50
2017,05,28,16,39,27.50
2017,05,28,16,40,27.50
2017,05,28,16,41,27.50
2017,05,28,16,42,27.50
2017,05,28,16,43,27.40
2017,05,28,16,44,27.40
2017,05,28,16,45,27.40
2017,05,28,16,46,27.40
2017,05,28,16,47,27.40
2017,05,28,16,48,27.50
2017,05,28,16,49,27.50
2017,05,28,16,50,27.40
2017,05,28,16,51,27.40
2017,05,28,16,52,27.40
2017,05,28,16,53,27.40
2017,05,28,16,54,27.40
2017,05,28,16,55,27.40
2017,05,28,16,56,27.40
2017,05,28,16,57,27.30
2017,05,28,16,58,27.40
2017,05,28,16,59,27.40
2017,05,28,17,00,27.40
2017,05,28,17,01,27.40
2017,05,28,17,02,27.50
2017,05,28,17,03,27.50
2017,05,28,17,04,27.60
2017,05,28,17,05,27.70
2017,05,28,17,06,27.70
2017,05,28,17,07,27.70
2017,05,28,17,08,27.70
2017,05,28,17,09,27.80
2017,05,28,17,10,27.80
2017,05,28,17,11,27.80
2017,05,28,17,12,27.80
2017,05,28,17,13,27.70
2017,05,28,17,14,27.70
2017,05,28,17,15,27.60
2017,05,28,17,16,27.70
2017,05,28,17,17,27.70
2017,05,28,17,18,27.70
2017,05,28,17,19,27.70